Hourly Data Report for October 26, 2013

All times are specified in Local Standard Time (LST). Add 1 hour to adjust for Daylight Saving Time where and when it is observed.

TORONTO INTL A
ONTARIO

43°40'36.000" N
79°37'50.000" W
173.40 m
6158731
71624
YYZ

Download Data

Hourly Data (October 2013)
Hourly Data Report for October 26, 2013
Temp Definition
°C
Dew Point Temp Definition
°C
Rel Hum Definition
%
Wind Dir Definition
10's deg

Wind Spd Definition
km/h
Visibility Definition
km
Stn Press Definition
kPa
Hmdx Definition


Wind Chill Definition


Weather Definition


TIME
00:00 Legend Double Dagger 5.3 -1.2 63 24 26 24.1 99.66     LegendNANA
01:00 Legend Double Dagger 5.4 -1.3 62 23 21 24.1 99.55     Cloudy
02:00 Legend Double Dagger 6.0 -2.6 54 23 24 24.1 99.46     LegendNANA
03:00 Legend Double Dagger 5.9 -2.7 54 21 21 24.1 99.30     LegendNANA
04:00 Legend Double Dagger 6.4 -2.7 52 21 28 24.1 99.16     Cloudy
05:00 Legend Double Dagger 5.2 0.8 73 25 35 19.3 99.08     Rain Showers
06:00 Legend Double Dagger 4.1 1.8 85 23 36 16.1 99.01     Rain
07:00 Legend Double Dagger 3.6 2.0 89 22 32 16.1 98.92     Rain
08:00 Legend Double Dagger 4.2 2.6 89 22 29 12.9 98.86     Rain
09:00 Legend Double Dagger 4.5 2.5 87 24 40 12.9 98.81     Rain
10:00 Legend Double Dagger 4.2 2.4 88 23 37 12.9 98.74     Rain
11:00 Legend Double Dagger 3.7 2.1 89 23 33 16.1 98.73     Rain
12:00 Legend Double Dagger 4.0 1.9 86 23 36 19.3 98.68     Rain
13:00 Legend Double Dagger 5.7 2.5 80 23 36 19.3 98.61     Mostly Cloudy
14:00 Legend Double Dagger 6.0 2.1 76 23 26 24.1 98.62     LegendNANA
15:00 Legend Double Dagger 5.1 2.1 81 23 35 19.3 98.62     Rain Showers
16:00 Legend Double Dagger 6.0 3.2 82 23 17 24.1 98.62     Mostly Cloudy
17:00 Legend Double Dagger 6.0 2.5 78 21 17 24.1 98.64     LegendNANA
18:00 Legend Double Dagger 5.9 2.7 80 22 17 24.1 98.66     LegendNANA
19:00 Legend Double Dagger 5.7 3.1 83 27 18 24.1 98.69     Cloudy
20:00 Legend Double Dagger 5.4 3.1 85 26 17 24.1 98.70     LegendNANA
21:00 Legend Double Dagger 5.3 2.7 83 27 23 24.1 98.74     LegendNANA
22:00 Legend Double Dagger 4.4 2.3 86 28 18 24.1 98.78     Mostly Cloudy
23:00 Legend Double Dagger 3.8 1.7 86 28 21 24.1 98.84     LegendNANA

Notes on Data Quality.

Legend

  • E = Estimated
  • M = Missing
  • NA = Not Available
  • ‡ = Partner data that is not subject to review by the National Climate Archives
Date modified: